CDG778 ZSSS-ZSAM

Flight info

Callsign CDG778
Flight time N/A
Altitude 25600
Route NXD71D/36L NXD W131 AKDIM A470 ENVEN ENVEN8X
Aircraft B738/M-SDE2E3FGHIRWXY/LB1

Departure

Time 2026-04-30 05:15
Airport Shanghai Hongqiao International Airport (ZSSS)

Arrival

Time N/A
Airport Xiamen Gaoqi International Airport (ZSAM)
Time Latitude Longitude Altitude Speed Heading
2026-04-30 04:55 31.19485 121.32678 18 ft 0 kts 192°
2026-04-30 05:03 31.19501 121.32682 20 ft 4 kts 192°
2026-04-30 05:03 31.19527 121.32689 18 ft 4 kts 192°
2026-04-30 05:04 31.19547 121.32694 20 ft 4 kts 181°
2026-04-30 05:04 31.19572 121.32689 19 ft 4 kts 147°
2026-04-30 05:04 31.19586 121.32674 21 ft 0 kts 122°
2026-04-30 05:07 31.19584 121.32677 19 ft 2 kts 122°
2026-04-30 05:08 31.19576 121.32699 18 ft 4 kts 103°
2026-04-30 05:08 31.19575 121.32745 20 ft 7 kts 89°
2026-04-30 05:08 31.19577 121.32815 18 ft 10 kts 87°
2026-04-30 05:08 31.19581 121.32902 18 ft 12 kts 87°
2026-04-30 05:09 31.19550 121.32985 18 ft 13 kts 165°
2026-04-30 05:09 31.19451 121.32991 21 ft 15 kts 177°
2026-04-30 05:09 31.19349 121.32997 18 ft 14 kts 177°
2026-04-30 05:09 31.19251 121.33002 18 ft 14 kts 177°
2026-04-30 05:10 31.19157 121.33007 18 ft 13 kts 177°
2026-04-30 05:10 31.19067 121.33012 18 ft 13 kts 177°
2026-04-30 05:10 31.18979 121.33016 18 ft 12 kts 177°
2026-04-30 05:10 31.18893 121.33021 18 ft 12 kts 177°
2026-04-30 05:11 31.18811 121.33026 18 ft 12 kts 177°
2026-04-30 05:11 31.18727 121.33030 18 ft 13 kts 177°
2026-04-30 05:11 31.18631 121.33035 18 ft 15 kts 177°
2026-04-30 05:11 31.18518 121.33041 18 ft 17 kts 178°
2026-04-30 05:12 31.18398 121.33047 18 ft 14 kts 177°
2026-04-30 05:12 31.18338 121.33102 18 ft 12 kts 90°
2026-04-30 05:12 31.18341 121.33193 18 ft 8 kts 87°
2026-04-30 05:12 31.18342 121.33215 18 ft 0 kts 88°
2026-04-30 05:13 31.18342 121.33216 18 ft 1 kts 88°
2026-04-30 05:13 31.18343 121.33252 18 ft 8 kts 87°
2026-04-30 05:14 31.18370 121.33323 19 ft 11 kts 12°
2026-04-30 05:14 31.18435 121.33322 19 ft 8 kts 357°
2026-04-30 05:14 31.18619 121.33312 19 ft 56 kts 357°
2026-04-30 05:14 31.19217 121.33279 17 ft 114 kts 357°
2026-04-30 05:15 31.20168 121.33222 27 ft 158 kts 355°
2026-04-30 05:15 31.21321 121.33152 389 ft 172 kts 357°
2026-04-30 05:15 31.22534 121.33035 915 ft 178 kts 348°
2026-04-30 05:15 31.23564 121.32300 1495 ft 182 kts 303°
2026-04-30 05:16 31.24123 121.30955 1983 ft 193 kts 297°
2026-04-30 05:16 31.24771 121.29503 2226 ft 208 kts 299°
2026-04-30 05:16 31.25450 121.28003 2568 ft 215 kts 299°
2026-04-30 05:16 31.26160 121.26445 3031 ft 216 kts 299°
2026-04-30 05:17 31.26871 121.24883 3504 ft 222 kts 298°
2026-04-30 05:17 31.27495 121.23208 4042 ft 227 kts 280°
2026-04-30 05:17 31.27353 121.21370 4581 ft 239 kts 251°
2026-04-30 05:17 31.26478 121.19609 4813 ft 260 kts 236°
2026-04-30 05:18 31.26224 121.19198 4902 ft 264 kts 236°
2026-04-30 05:18 31.25847 121.18603 5056 ft 267 kts 235°
2026-04-30 05:18 31.24719 121.16849 5644 ft 271 kts 236°
2026-04-30 05:18 31.23585 121.15074 6322 ft 273 kts 236°
2026-04-30 05:19 31.22421 121.13297 6935 ft 277 kts 229°
2026-04-30 05:19 31.20820 121.12091 7599 ft 285 kts 199°
2026-04-30 05:19 31.18811 121.11839 8279 ft 291 kts 180°
2026-04-30 05:19 31.16802 121.11973 8907 ft 295 kts 180°
2026-04-30 05:20 31.14745 121.12122 9571 ft 298 kts 181°
2026-04-30 05:20 31.12660 121.12256 10214 ft 302 kts 182°
2026-04-30 05:20 31.10501 121.12354 10436 ft 319 kts 187°
2026-04-30 05:20 31.08343 121.11711 10576 ft 326 kts 214°
2026-04-30 05:21 31.06631 121.09962 10729 ft 334 kts 239°
2026-04-30 05:21 31.05661 121.07471 10884 ft 345 kts 255°
2026-04-30 05:21 31.04978 121.04734 11079 ft 359 kts 256°
2026-04-30 05:21 31.04308 121.01910 11550 ft 363 kts 256°
2026-04-30 05:22 31.03646 120.99107 12209 ft 362 kts 256°
2026-04-30 05:22 31.02972 120.96286 12935 ft 360 kts 256°
2026-04-30 05:22 31.02292 120.93475 13636 ft 360 kts 256°
2026-04-30 05:22 31.01606 120.90669 14270 ft 360 kts 255°
2026-04-30 05:23 31.00915 120.87865 14850 ft 361 kts 255°
2026-04-30 05:23 31.00221 120.85060 15410 ft 362 kts 255°
2026-04-30 05:23 30.99518 120.82225 15881 ft 366 kts 255°
2026-04-30 05:23 30.98807 120.79366 16448 ft 367 kts 255°
2026-04-30 05:24 30.98096 120.76508 17027 ft 368 kts 255°
2026-04-30 05:24 30.97382 120.73643 17599 ft 369 kts 255°
2026-04-30 05:24 30.96663 120.70763 18101 ft 371 kts 255°
2026-04-30 05:24 30.95940 120.67867 18600 ft 372 kts 255°
2026-04-30 05:25 30.95214 120.64964 19028 ft 374 kts 255°
2026-04-30 05:25 30.94485 120.62052 19469 ft 375 kts 254°
2026-04-30 05:25 30.93753 120.59130 19882 ft 377 kts 254°
2026-04-30 05:25 30.93016 120.56188 20296 ft 379 kts 254°
2026-04-30 05:26 30.92276 120.53238 20707 ft 380 kts 254°
2026-04-30 05:26 30.91542 120.50319 21100 ft 382 kts 254°
2026-04-30 05:26 30.90793 120.47344 21481 ft 383 kts 253°
2026-04-30 05:26 30.89757 120.44481 21823 ft 388 kts 240°
2026-04-30 05:27 30.88118 120.41962 22219 ft 394 kts 231°
2026-04-30 05:27 30.86058 120.39834 22536 ft 402 kts 222°
2026-04-30 05:27 30.83750 120.37912 22582 ft 416 kts 216°
2026-04-30 05:27 30.81339 120.35975 22695 ft 427 kts 214°
2026-04-30 05:28 30.78853 120.33991 22744 ft 439 kts 214°
2026-04-30 05:28 30.76308 120.31944 22828 ft 449 kts 215°
2026-04-30 05:28 30.73719 120.29844 22918 ft 457 kts 215°
2026-04-30 05:28 30.71104 120.27709 23119 ft 462 kts 215°
2026-04-30 05:29 30.68462 120.25545 23366 ft 466 kts 215°
2026-04-30 05:29 30.65805 120.23364 23632 ft 469 kts 215°
2026-04-30 05:29 30.63129 120.21169 23898 ft 472 kts 215°
2026-04-30 05:29 30.60443 120.18967 24191 ft 473 kts 215°
2026-04-30 05:30 30.57751 120.16762 24523 ft 474 kts 215°
2026-04-30 05:30 30.55066 120.14565 25064 ft 468 kts 215°
2026-04-30 05:30 30.52414 120.12397 25544 ft 466 kts 215°
2026-04-30 05:30 30.49766 120.10233 25584 ft 464 kts 215°
2026-04-30 05:31 30.47123 120.08075 25601 ft 465 kts 215°
2026-04-30 05:31 30.44510 120.05944 25610 ft 467 kts 215°
2026-04-30 05:31 30.41806 120.03853 25605 ft 468 kts 212°
2026-04-30 05:31 30.38997 120.01930 25608 ft 469 kts 210°
2026-04-30 05:32 30.36147 120.00083 25605 ft 470 kts 209°
2026-04-30 05:32 30.33277 119.98246 25606 ft 471 kts 209°
2026-04-30 05:32 30.30420 119.96402 25601 ft 471 kts 209°
2026-04-30 05:32 30.27565 119.94538 25600 ft 471 kts 210°
2026-04-30 05:33 30.24722 119.92663 25600 ft 470 kts 210°
2026-04-30 05:33 30.21877 119.90777 25600 ft 470 kts 210°
2026-04-30 05:33 30.19044 119.88897 25599 ft 469 kts 210°
2026-04-30 05:33 30.16217 119.87022 25601 ft 468 kts 210°
2026-04-30 05:34 30.13393 119.85151 25602 ft 468 kts 210°
2026-04-30 05:34 30.10574 119.83284 25599 ft 467 kts 210°
2026-04-30 05:34 30.07753 119.81419 25601 ft 467 kts 210°
2026-04-30 05:34 30.04933 119.79558 25601 ft 467 kts 210°
2026-04-30 05:35 30.02119 119.77681 25600 ft 467 kts 210°
2026-04-30 05:35 29.99306 119.75786 25611 ft 471 kts 210°
2026-04-30 05:35 29.96458 119.73862 25611 ft 476 kts 210°
2026-04-30 05:35 29.93620 119.71950 25611 ft 481 kts 210°
2026-04-30 05:36 29.90720 119.70001 25604 ft 484 kts 210°
2026-04-30 05:36 29.87756 119.68166 25590 ft 483 kts 204°
2026-04-30 05:36 29.84584 119.66882 25605 ft 482 kts 194°
2026-04-30 05:36 29.81292 119.66154 25600 ft 482 kts 186°
2026-04-30 05:37 29.77946 119.65977 25610 ft 481 kts 181°
2026-04-30 05:37 29.74598 119.65881 25596 ft 481 kts 182°
2026-04-30 05:37 29.71251 119.65698 25594 ft 481 kts 183°
2026-04-30 05:37 29.67912 119.65462 25597 ft 481 kts 184°
2026-04-30 05:38 29.64566 119.65222 25598 ft 481 kts 183°
2026-04-30 05:38 29.61225 119.65008 25599 ft 481 kts 182°
2026-04-30 05:38 29.57877 119.64916 25602 ft 481 kts 181°
2026-04-30 05:38 29.54532 119.64867 25600 ft 482 kts 180°
2026-04-30 05:39 29.51195 119.64767 25606 ft 482 kts 182°
2026-04-30 05:39 29.47841 119.64565 25563 ft 486 kts 184°
2026-04-30 05:39 29.44469 119.64320 25574 ft 496 kts 184°
2026-04-30 05:39 29.40996 119.64062 25597 ft 504 kts 184°
2026-04-30 05:40 29.37464 119.63814 25624 ft 512 kts 184°
2026-04-30 05:40 29.33877 119.63576 25616 ft 520 kts 184°
2026-04-30 05:40 29.30238 119.63345 25619 ft 527 kts 184°
2026-04-30 05:40 29.26551 119.63116 25615 ft 534 kts 184°
2026-04-30 05:41 29.22818 119.62886 25620 ft 541 kts 184°
2026-04-30 05:41 29.19042 119.62651 25603 ft 546 kts 184°
2026-04-30 05:41 29.15236 119.62415 25608 ft 550 kts 184°
2026-04-30 05:41 29.11401 119.62175 25611 ft 553 kts 184°
2026-04-30 05:42 29.07556 119.61935 25598 ft 553 kts 184°
2026-04-30 05:42 29.03715 119.61695 25592 ft 552 kts 184°
2026-04-30 05:42 28.99877 119.61456 25594 ft 552 kts 184°
2026-04-30 05:42 28.96040 119.61217 25601 ft 552 kts 184°
2026-04-30 05:43 28.92207 119.60978 25604 ft 552 kts 184°
2026-04-30 05:43 28.88365 119.60739 25597 ft 553 kts 183°
2026-04-30 05:43 28.84592 119.60519 25388 ft 531 kts 191°
2026-04-30 05:43 28.81045 119.60315 25465 ft 492 kts 192°
2026-04-30 05:44 28.77718 119.60120 25552 ft 466 kts 192°
2026-04-30 05:44 28.74557 119.59925 25616 ft 444 kts 193°
2026-04-30 05:44 28.71482 119.59728 25707 ft 444 kts 193°
2026-04-30 05:44 28.68382 119.59517 25739 ft 449 kts 193°
2026-04-30 05:45 28.65241 119.59305 25740 ft 454 kts 193°
2026-04-30 05:45 28.62117 119.59103 25749 ft 458 kts 193°
2026-04-30 05:45 28.58880 119.58900 25743 ft 462 kts 192°
2026-04-30 05:45 28.55703 119.58703 25738 ft 464 kts 192°
2026-04-30 05:46 28.52467 119.58510 25738 ft 467 kts 192°
2026-04-30 05:46 28.49219 119.58313 25743 ft 469 kts 192°
2026-04-30 05:46 28.45955 119.58103 25745 ft 471 kts 192°
2026-04-30 05:46 28.42666 119.57920 25758 ft 474 kts 192°
2026-04-30 05:47 28.39363 119.57741 25734 ft 476 kts 192°
2026-04-30 05:47 28.36045 119.57566 25756 ft 477 kts 191°
2026-04-30 05:47 28.33805 119.57459 25760 ft 479 kts 192°
2026-04-30 05:47 28.29380 119.57228 25724 ft 482 kts 192°
2026-04-30 05:48 28.27117 119.57104 25740 ft 483 kts 192°
2026-04-30 05:48 28.22658 119.56860 25747 ft 485 kts 192°
2026-04-30 05:48 28.20426 119.56741 25745 ft 485 kts 191°
2026-04-30 05:48 28.15913 119.56502 25742 ft 486 kts 191°
2026-04-30 05:49 28.13673 119.56383 25735 ft 486 kts 191°
2026-04-30 05:49 28.10294 119.56206 25736 ft 486 kts 191°
2026-04-30 05:49 28.06902 119.56074 25694 ft 487 kts 189°
2026-04-30 05:49 28.03520 119.56028 25731 ft 487 kts 188°
2026-04-30 05:50 28.00134 119.56008 25735 ft 486 kts 188°
2026-04-30 05:50 27.96764 119.55977 25722 ft 485 kts 188°
2026-04-30 05:50 27.93386 119.55925 25727 ft 485 kts 189°
2026-04-30 05:50 27.90011 119.55871 25732 ft 485 kts 188°
2026-04-30 05:51 27.86637 119.55842 25719 ft 486 kts 188°
2026-04-30 05:51 27.83254 119.55829 25716 ft 485 kts 188°
2026-04-30 05:51 27.79876 119.55814 25726 ft 485 kts 188°